Date String (YYYY-MM-DD hh:mm:ss) UTC,Instrument flags,Ambient pressure (hPa),Sample flow (lpm),Bypass flow (lpm),Sample temperature (°C),Ambient temperature (°C),ASC tube jacket temperature (°C),LED temperature (°C),Box temperature (°C),Sample RH (%),Span deviation,Mass concentration (μg/m³),Mass concentration (μg/m³),Mass concentration (μg/m³)
DateTimeUTC,F1_M11,P_M11,Q1_M11,Q2_M11,T1_M11,T2_M11,T3_M11,T4_M11,T5_M11,U1_M11,ZSPAN_M11,X0_M11,X2_M11,X1_M11
2022-12-12 01:00:00,,0817.2,5.01,0.00,29.7,28.2,00.0,38.6,31.5,06.5,0000.0,0022.17,0008.43,0006.87
2022-12-12 01:01:00,,0816.8,5.01,0.00,29.7,28.2,00.0,38.6,31.5,06.4,0000.0,0022.40,0008.35,0006.78
2022-12-12 01:02:00,,0816.9,5.00,0.00,29.7,28.2,00.0,38.6,31.5,06.3,0000.0,0022.77,0008.20,0006.65
2022-12-12 01:03:00,,0816.9,4.99,0.00,29.7,28.2,00.0,38.6,31.5,06.3,0000.0,0022.33,0008.00,0006.52
2022-12-12 01:04:00,,0816.8,5.00,0.00,29.7,28.2,00.0,38.6,31.5,06.2,0000.0,0021.41,0007.83,0006.39
2022-12-12 01:05:00,,0816.9,4.99,0.00,29.7,28.2,00.0,38.6,31.5,06.2,0000.0,0021.18,0007.78,0006.26
2022-12-12 01:06:00,,0816.8,5.01,0.00,29.7,28.2,00.0,38.6,31.5,06.3,0000.0,0020.64,0007.71,0006.13
2022-12-12 01:07:00,,0816.9,5.01,0.00,29.7,28.1,00.0,38.6,31.5,06.4,0000.0,0019.97,0007.67,0006.07
2022-12-12 01:08:00,,0816.8,5.00,0.00,29.7,28.1,00.0,38.6,31.4,06.4,0000.0,0020.77,0007.63,0006.02
2022-12-12 01:09:00,,0817.1,4.98,0.00,29.7,28.1,00.0,38.6,31.4,06.4,0000.0,0021.25,0007.57,0005.96
2022-12-12 01:10:00,,0817.2,5.00,0.00,29.7,28.1,00.0,38.6,31.4,06.3,0000.0,0021.66,0007.49,0005.89
2022-12-12 01:11:00,,0816.8,5.01,0.00,29.7,28.2,00.0,38.6,31.4,06.3,0000.0,0021.08,0007.42,0005.83
2022-12-12 01:12:00,,0817.0,5.00,0.00,29.7,28.2,00.0,38.6,31.4,06.3,0000.0,0020.13,0007.33,0005.77
2022-12-12 01:13:00,,0817.2,4.99,0.00,29.7,28.2,00.0,38.6,31.4,06.4,0000.0,0019.49,0007.33,0005.74
2022-12-12 01:14:00,,0817.0,4.99,0.00,29.7,28.2,00.0,38.6,31.4,06.4,0000.0,0019.51,0007.34,0005.73
2022-12-12 01:15:00,,0817.1,5.01,0.00,29.7,28.2,00.0,38.6,31.4,06.3,0000.0,0019.81,0007.36,0005.74
2022-12-12 01:16:00,,0817.0,5.00,0.00,29.6,28.1,00.0,38.6,31.4,06.3,0000.0,0020.10,0007.30,0005.74
2022-12-12 01:17:00,,0817.1,5.01,0.00,29.7,28.1,00.0,38.6,31.4,06.3,0000.0,0020.36,0007.29,0005.75
2022-12-12 01:18:00,,0816.9,4.99,0.00,29.6,28.1,00.0,38.6,31.4,06.3,0000.0,0021.26,0007.24,0005.71
2022-12-12 01:19:00,,0816.9,4.99,0.00,29.6,28.1,00.0,38.5,31.4,06.3,0000.0,0020.25,0007.14,0005.66
2022-12-12 01:20:00,,0816.9,5.01,0.00,29.6,28.1,00.0,38.5,31.4,06.3,0000.0,0020.08,0007.08,0005.60
2022-12-12 01:21:00,,0816.7,5.01,0.00,29.6,28.1,00.0,38.5,31.4,06.3,0000.0,0019.17,0007.02,0005.57
2022-12-12 01:22:00,,0816.6,4.99,0.00,29.6,28.1,00.0,38.5,31.4,06.3,0000.0,0018.84,0006.97,0005.55
2022-12-12 01:23:00,,0816.6,4.99,0.00,29.6,28.1,00.0,38.5,31.4,06.4,0000.0,0019.19,0006.98,0005.57
2022-12-12 01:24:00,,0816.6,5.00,0.00,29.6,28.1,00.0,38.5,31.4,06.4,0000.0,0019.22,0006.98,0005.59
2022-12-12 01:25:00,,0816.7,5.00,0.00,29.6,28.1,00.0,38.5,31.3,06.4,0000.0,0019.03,0006.96,0005.60
2022-12-12 01:26:00,,0816.7,5.01,0.00,29.6,28.1,00.0,38.5,31.4,06.4,0000.0,0018.88,0006.98,0005.61
2022-12-12 01:27:00,,0816.6,5.00,0.00,29.6,28.1,00.0,38.5,31.4,06.4,0000.0,0019.21,0007.02,0005.65
2022-12-12 01:28:00,,0816.7,4.99,0.00,29.6,28.1,00.0,38.5,31.4,06.4,0000.0,0019.52,0007.07,0005.69
2022-12-12 01:29:00,,0816.6,4.99,0.00,29.6,28.1,00.0,38.5,31.4,06.5,0000.0,0019.64,0007.10,0005.74
2022-12-12 01:30:00,,0816.8,5.00,0.00,29.6,28.1,00.0,38.5,31.4,06.5,0000.0,0019.79,0007.16,0005.80
2022-12-12 01:31:00,,0816.8,5.00,0.00,29.6,28.1,00.0,38.5,31.4,06.5,0000.0,0019.82,0007.22,0005.89
2022-12-12 01:32:00,,0816.7,5.01,0.00,29.6,28.1,00.0,38.5,31.4,06.5,0000.0,0019.97,0007.39,0005.98
2022-12-12 01:33:00,,0816.8,5.00,0.00,29.6,28.1,00.0,38.5,31.3,06.5,0000.0,0020.30,0007.54,0006.09
2022-12-12 01:34:00,,0817.0,5.00,0.00,29.6,28.0,00.0,38.5,31.3,06.5,0000.0,0020.23,0007.59,0006.16
2022-12-12 01:35:00,,0817.0,5.00,0.00,29.6,28.0,00.0,38.5,31.4,06.5,0000.0,0020.27,0007.63,0006.21
2022-12-12 01:36:00,,0816.7,5.00,0.00,29.6,28.0,00.0,38.5,31.4,06.5,0000.0,0020.28,0007.72,0006.31
2022-12-12 01:37:00,,0817.1,5.00,0.00,29.6,28.0,00.0,38.5,31.3,06.5,0000.0,0020.69,0007.80,0006.39
2022-12-12 01:38:00,,0816.9,5.00,0.00,29.6,28.0,00.0,38.5,31.3,06.5,0000.0,0020.37,0007.82,0006.42
2022-12-12 01:39:00,,0816.8,4.99,0.00,29.6,28.0,00.0,38.5,31.3,06.5,0000.0,0020.29,0007.80,0006.43
2022-12-12 01:40:00,,0817.1,5.00,0.00,29.6,28.0,00.0,38.5,31.3,06.5,0000.0,0020.51,0007.82,0006.41
2022-12-12 01:41:00,,0817.2,5.00,0.00,29.6,28.0,00.0,38.4,31.3,06.5,0000.0,0021.20,0007.88,0006.41
2022-12-12 01:42:00,,0817.2,5.00,0.00,29.6,28.0,00.0,38.4,31.3,06.5,0001.6,0020.83,0007.89,0006.39
2022-12-12 01:43:00,,0817.1,5.00,0.00,29.5,27.9,00.0,38.4,31.3,06.5,0000.5,0020.99,0007.80,0006.35
2022-12-12 01:44:00,,0817.2,5.00,0.00,29.5,27.9,00.0,38.4,31.3,06.5,0000.0,0022.85,0007.77,0006.31
2022-12-12 01:45:00,,0817.1,5.00,0.00,29.5,27.9,00.0,38.4,31.3,06.5,0000.0,0023.48,0007.81,0006.28
2022-12-12 01:46:00,,0816.8,5.00,0.00,29.5,27.7,00.0,38.4,31.2,06.5,0000.0,0023.56,0007.81,0006.26
2022-12-12 01:47:00,,0816.6,5.00,0.00,29.5,27.7,00.0,38.4,31.2,06.5,0000.0,0024.27,0007.79,0006.22
2022-12-12 01:48:00,,0816.6,5.00,0.00,29.4,27.7,00.0,38.4,31.2,06.6,0003.5,0023.88,0007.76,0006.17
2022-12-12 01:49:00,,0816.7,5.00,0.00,29.4,27.7,00.0,38.4,31.1,06.5,0004.0,0024.08,0007.73,0006.15
2022-12-12 01:50:00,,0816.6,5.00,0.00,29.4,27.7,00.0,38.4,31.1,05.9,0004.2,0023.49,0007.59,0006.04
2022-12-12 01:51:00,,0816.7,4.98,0.00,29.4,27.7,00.0,38.3,31.1,05.5,0001.5,0021.68,0007.26,0005.82
2022-12-12 01:52:00,,0816.6,5.01,0.00,29.3,27.6,00.0,38.3,31.1,05.4,0000.0,0020.14,0006.90,0005.55
2022-12-12 01:53:00,,0816.6,5.00,0.00,29.3,27.6,00.0,38.3,31.0,05.3,0000.0,0019.29,0006.49,0005.25
2022-12-12 01:54:00,,0816.7,5.01,0.00,29.3,27.6,00.0,38.3,31.0,05.3,0000.0,0017.86,0006.11,0004.93
2022-12-12 01:55:00,,0816.6,4.99,0.00,29.3,27.5,00.0,38.3,30.9,05.3,0000.0,0014.75,0005.66,0004.61
2022-12-12 01:56:00,,0816.5,4.99,0.00,29.2,27.5,00.0,38.3,30.9,05.3,0000.0,0012.98,0005.22,0004.30
2022-12-12 01:57:00,,0816.5,5.00,0.00,29.2,27.5,00.0,38.3,30.9,05.3,0000.0,0011.51,0004.80,0003.98
2022-12-12 01:58:00,,0816.7,5.00,0.00,29.2,27.4,00.0,38.2,30.9,05.3,0000.0,0010.12,0004.39,0003.66
2022-12-12 01:59:00,,0816.6,5.00,0.00,29.2,27.4,00.0,38.2,30.8,05.3,0000.0,0009.05,0003.96,0003.35
